This is the latest recevied weather packets stored in our database for station/object SQ9RHX-13. If no packets are shown the sender has not sent any weather packets the latest 10 day(s).
| Time | Temp. | Humidity | Pressure | Rain* | Wind** | Luminosity | Snow |
|---|---|---|---|---|---|---|---|
| 1777993503 | 28.33° C | 30% | 1008.9 hPa | 0 mm | - | 229 W/m² | - |
| 1777993203 | 28.89° C | 29% | 1009.1 hPa | 0 mm | - | 258 W/m² | - |
| 1777992902 | 27.78° C | 31% | 1009.1 hPa | 0 mm | - | 273 W/m² | - |
| 1777992603 | 27.78° C | 32% | 1009.1 hPa | 0 mm | - | 282 W/m² | - |
| 1777992304 | 27.22° C | 31% | 1009.2 hPa | 0 mm | - | 288 W/m² | - |
| 1777992003 | 27.78° C | 31% | 1009.2 hPa | 0 mm | - | 313 W/m² | - |
| 1777991704 | 27.22° C | 33% | 1009.4 hPa | 0 mm | - | 336 W/m² | - |
| 1777991404 | 27.78° C | 32% | 1009.3 hPa | 0 mm | - | 371 W/m² | - |
| 1777991103 | 26.67° C | 34% | 1009.4 hPa | 0 mm | - | 370 W/m² | - |
| 1777990803 | 26.67° C | 34% | 1009.3 hPa | 0 mm | - | 365 W/m² | - |
| 1777990503 | 26.67° C | 34% | 1009.3 hPa | 0 mm | - | 261 W/m² | - |
| 1777989902 | 26.67° C | 34% | 1009.5 hPa | 0 mm | - | 167 W/m² | - |
| 1777989603 | 26.11° C | 33% | 1009.5 hPa | 0 mm | - | 199 W/m² | - |
| 1777989302 | 26.67° C | 33% | 1009.6 hPa | 0 mm | - | 164 W/m² | - |
| 1777989002 | 27.78° C | 33% | 1009.7 hPa | 0 mm | - | 191 W/m² | - |
| 1777988703 | 28.33° C | 32% | 1009.7 hPa | 0 mm | - | 242 W/m² | - |
| 1777988403 | 27.78° C | 31% | 1009.7 hPa | 0 mm | - | 393 W/m² | - |
| 1777988104 | 27.78° C | 31% | 1009.5 hPa | 0 mm | - | 463 W/m² | - |
| 1777987803 | 28.33° C | 31% | 1009.7 hPa | 0 mm | - | 433 W/m² | - |
| 1777987504 | 27.22° C | 32% | 1009.7 hPa | 0 mm | - | 426 W/m² | - |
| 1777987205 | 27.78° C | 32% | 1009.6 hPa | 0 mm | - | 428 W/m² | - |
| 1777986904 | 27.78° C | 31% | 1009.7 hPa | 0 mm | - | 505 W/m² | - |
| 1777986605 | 27.78° C | 30% | 1009.8 hPa | 0 mm | - | 466 W/m² | - |
| 1777986305 | 27.78° C | 31% | 1009.8 hPa | 0 mm | - | 443 W/m² | - |
| 1777986003 | 27.78° C | 30% | 1009.8 hPa | 0 mm | - | 440 W/m² | - |
* Rain latest hour (hover to see other rain measurements)
** Current wind speed in m/s (hover to see current wind gust speed)